User: anonymous   Login
Location: Guayaquil
(2.1667°S, 79.9000°W)
Time: 21:14:38
(UTC-05:00)
Language:

NEE 01 PEGASUS - Orbit

View from above orbital plane
View from above orbital plane
View from above satellite
View from above satellite

Ground track
Ground track

The orbit data is extracted from the following two-line orbital elements,

1 39151U 13018B   17290.49471772  .00000256  00000-0  41009-4 0  9993
2 39151  97.9825  21.2382 0017443  19.0394 341.1466 14.79787337241620
Epoch (UTC): 17 October 2017 11:52:23
Eccentricity: 0.0017443
inclination: 97.9825°
perigee height: 618 km
apogee height: 642 km
right ascension of ascending node: 21.2382°
argument of perigee: 19.0394°
revolutions per day: 14.79787337
mean anomaly at epoch: 341.1466°
orbit number at epoch: 24162

The dashed part of the orbit path shows where the satellite is in the earth's shadow,  

DLR